Location: Masseube
(43.4298°N, 0.5781°E)
Time: 17:26:27
(UTC+00:00)

COSMOS 2428 - Visible Passes

Search period start: 13 November 2025 00:00
Search period end: 23 November 2025 00:00
Orbit: 848 x 851 km, 70.9° (Epoch: 13 November)

Date Brightness Start Highest point End Pass type
(mag) Time Alt. Az. Time Alt. Az. Time Alt. Az.
13 Nov 4.2 03:44:58 28° NNE 03:44:58 28° NNE 03:47:32 10° NNE visible
13 Nov 4.3 05:26:59 16° NW 05:26:59 16° NW 05:30:20 10° N visible
14 Nov 4.7 03:33:05 21° NNE 03:33:05 21° NNE 03:34:49 10° NNE visible
14 Nov 4.4 05:15:06 15° NNW 05:15:06 15° NNW 05:17:38 10° N visible
15 Nov 5.0 03:21:07 15° NNE 03:21:07 15° NNE 03:22:05 10° NNE visible
15 Nov 4.5 05:03:07 14° NNW 05:03:07 14° NNW 05:04:55 10° N visible
16 Nov 5.3 03:09:04 12° NNE 03:09:04 12° NNE 03:09:22 10° NNE visible
16 Nov 4.7 04:51:04 13° NNW 04:51:04 13° NNW 04:52:13 10° N visible
17 Nov 4.9 04:38:57 12° NNW 04:38:57 12° NNW 04:39:30 10° N visible
18 Nov 5.0 04:26:48 10° N 04:26:48 10° N 04:26:48 10° N visible
